This is the latest recevied weather packets stored in our database for station/object SR5NLK-1. If no packets are shown the sender has not sent any weather packets the latest 10 day(s).
| Time | Temp. | Humidity | Pressure | Rain* | Wind** | Luminosity | Snow |
|---|---|---|---|---|---|---|---|
| 1778116349 | 14.44° C | 80% | 1013.5 hPa | 0 mm | - | - | - |
| 1778116049 | 14.44° C | 79% | 1068.9 hPa | 0 mm | - | - | - |
| 1778115808 | 14.44° C | 79% | 988.3 hPa | 0 mm | - | - | - |
| 1778115749 | 14.44° C | 79% | 1076.9 hPa | 0 mm | - | - | - |
| 1778115449 | 14.44° C | 79% | 965.4 hPa | 0 mm | - | - | - |
| 1778115149 | 15° C | 78% | 971.6 hPa | 0 mm | - | - | - |
| 1778114849 | 15° C | 78% | 1045.9 hPa | 0 mm | - | - | - |
| 1778114549 | 15° C | 78% | 1058.5 hPa | 0 mm | - | - | - |
| 1778114249 | 15° C | 78% | 1010.4 hPa | 0 mm | - | - | - |
| 1778113949 | 15° C | 77% | 888 hPa | 0 mm | - | - | - |
| 1778113828 | 15° C | 77% | 962.3 hPa | 0 mm | - | - | - |
| 1778113649 | 15.56° C | 76% | 1058.5 hPa | 0 mm | - | - | - |
| 1778113349 | 15.56° C | 75% | 990.1 hPa | 0 mm | - | - | - |
| 1778113049 | 15.56° C | 74% | 1001 hPa | 0 mm | - | - | - |
| 1778112749 | 16.11° C | 72% | 1042.8 hPa | 0 mm | - | - | - |
| 1778112450 | 16.67° C | 70% | 1055.3 hPa | 0 mm | - | - | - |
| 1778112149 | 17.22° C | 69% | 926.7 hPa | 0 mm | - | - | - |
| 1778111848 | 17.22° C | 68% | 968.6 hPa | 0 mm | - | - | - |
| 1778111549 | 17.22° C | 67% | 1046 hPa | 0 mm | - | - | - |
| 1778111249 | 16.67° C | 67% | 1024.2 hPa | 0 mm | - | - | - |
| 1778110949 | 16.67° C | 67% | 1022.8 hPa | 0 mm | - | - | - |
| 1778110650 | 16.67° C | 66% | 1001 hPa | 0 mm | - | - | - |
| 1778110349 | 16.67° C | 66% | 1052.2 hPa | 0 mm | - | - | - |
| 1778110049 | 16.67° C | 66% | 1007.3 hPa | 0 mm | - | - | - |
| 1778109868 | 16.67° C | 66% | 994.7 hPa | 0 mm | - | - | - |
* Rain latest hour (hover to see other rain measurements)
** Current wind speed in m/s (hover to see current wind gust speed)